Regional Weather Roundup
Issued by NWS

Home | Current Version | Previous Version | Graphics & Text | Print | Product List | Glossary On
Versions: 1 2 3 4 5 6 7 8 9 10 11 12 13 14 15 16 17 18 19 20 21 22 23 24 25 26 27 28 29 30 31 32 33 34 35 36 37 38 39 40 41 42 43 44 45 46 47 48 49 50
000
ASUS44 KMEG 271700
RWRTN
TENNESSEE HOURLY STATE WEATHER ROUNDUP
NATIONAL WEATHER SERVICE MEMPHIS TN
1200 PM CDT SAT AUG 27 2016

TNZ002-004-019-021-049-052-054-088>092-271800-
WEST TENNESSEE

CITY           SKY/WX    TMP DP  RH WIND       PRES   REMARKS
MEMPHIS INTL   MOSUNNY   88  74  63 NW5       30.09F HX  96
NWS MEMPHIS      N/A     86 N/A N/A MISG        N/A
JACKSON        PTSUNNY   85  76  74 N7        30.10F HX  94
DYERSBURG      SUNNY    N/A N/A N/A MISG        N/A
UNION CITY     SUNNY     84  75  74 CALM      30.09S HX  92
PARIS          SUNNY     84  73  70 CALM      30.11F HX  91
$$

TNZ008-025-027-028-033-062-065-066-271800-
NORTH MIDDLE TENNESSEE

CITY           SKY/WX    TMP DP  RH WIND       PRES   REMARKS
NASHVILLE      MOSUNNY   92  74  55 SW3       30.11F HX 101
CLARKSVILLE    PTSUNNY   85  74  69 SW5       30.11S HX  92
SMYRNA         SUNNY     90  73  58 W6        30.12S HX  98
COOKEVILLE     SUNNY     93  75  55 VRB5      30.13F HX 104
CROSSVILLE     MOSUNNY   86  68  54 VRB6      30.20F
$$

TNZ061-075-076-078-094-096-097-271800-
SOUTH MIDDLE TENNESSEE

CITY           SKY/WX    TMP DP  RH WIND       PRES   REMARKS
SHELBYVILLE    MOSUNNY   91  75  59 SE3       30.12F HX 102
$$

TNZ017-018-042-046-047-271800-
NORTHEAST TENNESSEE

CITY           SKY/WX    TMP DP  RH WIND       PRES   REMARKS
TRI CITIES     MOSUNNY   89  69  51 VRB6      30.17F HX  93
$$

TNZ012-013-036-069-073-074-271800-
CENTRAL EAST TENNESSEE

CITY           SKY/WX    TMP DP  RH WIND       PRES   REMARKS
KNOXVILLE      MOSUNNY   90  68  48 SW6       30.13F HX  94
GATLINBURG       N/A     90  70  51 CALM      30.13F HX  95
$$

TNZ083-085-099-271800-
SOUTHEAST TENNESSEE

CITY           SKY/WX    TMP DP  RH WIND       PRES   REMARKS
CHATTANOOGA    MOSUNNY   89  71  55 CALM      30.12F HX  95
$$

SKY/WX REPORTED AS FAIR MEANS FEW OR NO CLOUDS BELOW
12 THOUSAND FEET.





USA.gov is the U.S. government's official web portal to all federal, state and local government web resources and services.